Weather History for KCEU - January, 2013

Change the Weather History Date:

Thursday, January 3, 2013

  Actual Average Record
Temperature  
Mean Temperature 46 °F -  
Max Temperature 50 °F 52 °F - (-1)
Min Temperature 39 °F 32 °F - (-1)
Degree Days  
Heating Degree Days 20    
Moisture  
Dew Point 41 °F    
Average Humidity 79    
Maximum Humidity 90    
Minimum Humidity 66    
Precipitation  
Precipitation 0.00 in - - ()
Sea Level Pressure  
Sea Level Pressure 30.17 in    
Wind  
Wind Speed 3 mph (ENE)    
Max Wind Speed 7 mph    
Max Gust Speed -    
Visibility 8 miles    
Events      
Averages and records for this station are not official NWS values.
T = Trace of Precipitation, MM = Missing Value Source: NWS Daily Summary

Daily Weather History Graph

Daily Weather History Graph

Search for Another Location

Airport or City:

Trip Planner

Search our weather history database for the weather conditions in past years. The results will help you decide how hot, cold, wet, or windy it might be!

Date:

Astronomy

Jan. 03, 2013 Rise Set
Actual Time 7:39 AM EST 5:33 PM EST
Civil Twilight 7:11 AM EST 6:01 PM EST
Nautical Twilight 6:39 AM EST 6:32 PM EST
Astronomical Twilight 6:09 AM EST 7:03 PM EST
Moon 11:50 PM EST (1/3) 11:06 AM EST (1/3)
Length of Visible Light 10h 50m
Length of Day
9h 54m
Waning Gibbous, 65% of the Moon is Illuminated
Jan 3
Waning Gibbous
Jan 4
Last Quarter
Jan 11
New
Jan 18
First Quarter
Jan 26
Full

Hourly Weather History & Observations

Time (EST) Temp. Windchill Dew Point Humidity Pressure Visibility Wind Dir Wind Speed Gust Speed Precip Events Conditions
12:54 AM 48.0 °F - 43.0 °F 83% 30.09 in 4.0 mi Calm Calm - N/A   Haze
1:20 AM 48.2 °F - 44.6 °F 87% 30.10 in 3.0 mi Calm Calm - N/A   Overcast
1:34 AM 48.2 °F - 44.6 °F 87% 30.11 in 2.0 mi North 3.5 mph - N/A   Overcast
1:44 AM 48.2 °F - 44.6 °F 87% 30.11 in 1.2 mi North 3.5 mph - N/A   Overcast
1:54 AM 48.0 °F - 45.0 °F 89% 30.12 in 2.0 mi NNE 5.8 mph - N/A   Overcast
2:12 AM 48.2 °F - 44.6 °F 87% 30.12 in 3.0 mi NNE 3.5 mph - N/A   Overcast
2:54 AM 48.0 °F - 44.1 °F 86% 30.11 in 4.0 mi East 3.5 mph - N/A   Overcast
3:54 AM 46.9 °F - 44.1 °F 90% 30.10 in 6.0 mi East 5.8 mph - N/A   Overcast
4:54 AM 46.9 °F - 43.0 °F 86% 30.11 in 7.0 mi ENE 3.5 mph - N/A   Overcast
5:54 AM 46.9 °F - 43.0 °F 86% 30.12 in 7.0 mi ENE 3.5 mph - N/A   Overcast
6:36 AM 46.4 °F - 42.8 °F 87% 30.13 in 7.0 mi Calm Calm - N/A   Overcast
7:54 AM 46.9 °F - 42.1 °F 83% 30.15 in 6.0 mi Calm Calm - N/A   Haze
8:54 AM 46.9 °F - 42.1 °F 83% 30.15 in 4.0 mi East 3.5 mph - N/A   Haze
9:54 AM 46.9 °F - 42.1 °F 83% 30.17 in 6.0 mi ENE 4.6 mph - N/A   Haze
10:31 AM 48.2 °F - 42.8 °F 82% 30.18 in 7.0 mi NNE 4.6 mph - N/A   Overcast
10:49 AM 48.2 °F - 42.8 °F 82% 30.18 in 8.0 mi Calm Calm - N/A   Overcast
10:54 AM 48.0 °F - 42.1 °F 80% 30.18 in 8.0 mi Calm Calm - N/A   Overcast
11:16 AM 48.2 °F - 42.8 °F 82% 30.18 in 9.0 mi ENE 4.6 mph - N/A   Overcast
11:24 AM 48.2 °F - 42.8 °F 82% 30.17 in 9.0 mi ENE 4.6 mph - N/A   Overcast
11:40 AM 48.2 °F - 41.0 °F 76% 30.17 in 10.0 mi NE 3.5 mph - N/A   Overcast
11:54 AM 48.9 °F - 41.0 °F 74% 30.17 in 10.0 mi NE 3.5 mph - N/A   Overcast
12:18 PM 48.2 °F - 41.0 °F 76% 30.16 in 10.0 mi ENE 4.6 mph - N/A   Overcast
12:54 PM 48.9 °F - 42.1 °F 77% 30.15 in 10.0 mi Calm Calm - N/A   Overcast
1:35 PM 48.2 °F - 42.8 °F 82% 30.13 in 8.0 mi East 6.9 mph - N/A   Overcast
1:54 PM 50.0 °F - 42.1 °F 74% 30.14 in 9.0 mi ENE 6.9 mph - N/A   Overcast
2:13 PM 50.0 °F - 42.8 °F 76% 30.14 in 9.0 mi ENE 4.6 mph - N/A   Mostly Cloudy
2:54 PM 50.0 °F - 41.0 °F 71% 30.15 in 10.0 mi East 4.6 mph - N/A   Overcast
3:09 PM 50.0 °F - 39.2 °F 66% 30.15 in 10.0 mi ESE 3.5 mph - N/A   Mostly Cloudy
3:42 PM 50.0 °F - 41.0 °F 71% 30.16 in 10.0 mi East 4.6 mph - N/A   Mostly Cloudy
3:54 PM 50.0 °F - 39.9 °F 68% 30.16 in 10.0 mi ENE 5.8 mph - N/A   Mostly Cloudy
4:07 PM 50.0 °F - 39.2 °F 66% 30.17 in 10.0 mi ENE 5.8 mph - N/A   Partly Cloudy
4:54 PM 48.9 °F - 39.9 °F 71% 30.18 in 10.0 mi East 4.6 mph - N/A   Scattered Clouds
5:34 PM 46.4 °F 43.5 °F 39.2 °F 76% 30.20 in 10.0 mi East 5.8 mph - N/A   Mostly Cloudy
5:54 PM 46.9 °F - 39.9 °F 77% 30.21 in 10.0 mi ESE 3.5 mph - N/A   Overcast
6:21 PM 46.4 °F 44.3 °F 39.2 °F 76% 30.21 in 10.0 mi East 4.6 mph - N/A   Overcast
6:40 PM 46.4 °F 45.2 °F 39.2 °F 76% 30.23 in 10.0 mi East 3.5 mph - N/A   Overcast
6:54 PM 46.9 °F - 39.0 °F 74% 30.23 in 10.0 mi ESE 3.5 mph - N/A   Overcast
7:54 PM 46.0 °F - 39.0 °F 76% 30.25 in 10.0 mi Calm Calm - N/A   Overcast
8:38 PM 44.6 °F - 39.2 °F 81% 30.26 in 10.0 mi Calm Calm - N/A   Mostly Cloudy
8:54 PM 44.1 °F - 39.0 °F 82% 30.27 in 9.0 mi Calm Calm - N/A   Mostly Cloudy
9:54 PM 43.0 °F - 37.9 °F 82% 30.28 in 9.0 mi Calm Calm - N/A   Clear
10:54 PM 41.0 °F - 34.0 °F 76% 30.27 in 10.0 mi Calm Calm - N/A   Clear
11:54 PM 39.0 °F - 33.1 °F 79% 30.30 in 10.0 mi Calm Calm - N/A   Clear